Weather History for CWVU - February, 2013

Change the Weather History Date:

Wednesday, February 27, 2013

  Actual Average Record
Temperature  
Mean Temperature 36 °F -  
Max Temperature 43 °F - - ()
Min Temperature 30 °F - - ()
Degree Days  
Heating Degree Days 28    
Moisture  
Dew Point 25 °F    
Average Humidity 70    
Maximum Humidity 99    
Minimum Humidity 24    
Precipitation  
Precipitation 0.02 in - - ()
Sea Level Pressure  
Sea Level Pressure 30.21 in    
Wind  
Wind Speed 8 mph ()    
Max Wind Speed 22 mph    
Max Gust Speed 22 mph    
T = Trace of Precipitation, MM = Missing Value Source: Averaged Metar Reports

Daily Weather History Graph

Daily Weather History Graph

Search for Another Location

Airport or City:

Trip Planner

Search our weather history database for the weather conditions in past years. The results will help you decide how hot, cold, wet, or windy it might be!

Date:

Astronomy

Feb. 27, 2013 Rise Set
Actual Time 7:05 AM AST 6:11 PM AST
Civil Twilight 6:36 AM AST 6:40 PM AST
Nautical Twilight 6:02 AM AST 7:13 PM AST
Astronomical Twilight 5:29 AM AST 7:47 PM AST
Moon 8:35 PM AST (2/27) 7:32 AM AST (2/27)
Length of Visible Light 12h 03m
Length of Day
11h 05m
Waning Gibbous, 96% of the Moon is Illuminated
Feb 27
Waning Gibbous
Mar 4
Last Quarter
Mar 11
New
Mar 19
First Quarter
Mar 27
Full

Hourly Weather History & Observations

Time (AST) Temp. Windchill Dew Point Humidity Pressure Visibility Wind Dir Wind Speed Gust Speed Precip Events Conditions
12:00 AM 31.8 °F 28.5 °F 29.3 °F 90% 30.38 in - SE 3.5 mph - N/A   Unknown
1:00 AM 31.6 °F - 30.0 °F 94% 30.37 in - ESE 2.3 mph - N/A   Unknown
2:00 AM 33 °F - 31 °F 90% 30.35 in - East 5.8 mph - -  
2:00 AM 31.3 °F 25.6 °F 31.1 °F 99% 30.35 in - East 5.8 mph - N/A   Unknown
3:00 AM 31.3 °F - 29.5 °F 93% 30.35 in - East 2.3 mph - N/A   Unknown
4:00 AM 30.9 °F 26.2 °F 28.8 °F 92% 30.31 in - East 4.6 mph - N/A   Unknown
5:00 AM 30.6 °F 22.4 °F 28.4 °F 92% 30.29 in - East 9.2 mph - N/A   Unknown
6:00 AM 30.2 °F 21.9 °F 26.6 °F 86% 30.29 in - East 9.2 mph - N/A   Unknown
7:00 AM 30.4 °F 23.6 °F 25.5 °F 82% 30.30 in - ESE 6.9 mph - N/A   Unknown
8:00 AM 31 °F - 28 °F 82% 30.30 in - East 11.5 mph - -  
8:00 AM 31.5 °F 22.3 °F 27.7 °F 86% 30.30 in - East 11.5 mph - N/A   Unknown
9:00 AM 34.2 °F 24.8 °F 28.2 °F 79% 30.29 in - East 13.8 mph - N/A   Unknown
10:00 AM 35.2 °F 26.6 °F 28.2 °F 76% 30.27 in - ESE 12.7 mph - N/A   Unknown
11:00 AM 37.0 °F 27.7 °F 25.5 °F 63% 30.23 in - East 16.1 mph - N/A   Unknown
12:00 PM 39.7 °F 31.9 °F 24.4 °F 54% 30.20 in - East 13.8 mph - N/A   Unknown
1:00 PM 40.6 °F 32.7 °F 20.7 °F 45% 30.17 in - ENE 15.0 mph 21.9 mph N/A   Unknown
2:00 PM 43 °F - 19 °F 24% 30.15 in - East 10.4 mph - -  
2:00 PM 42.6 °F 36.8 °F 18.7 °F 38% 30.15 in - East 10.4 mph - N/A   Unknown
3:00 PM 43.2 °F 37.4 °F 22.1 °F 43% 30.12 in - ENE 10.4 mph - N/A   Unknown
4:00 PM 43.0 °F 36.8 °F 22.6 °F 45% 30.09 in - ENE 11.5 mph - N/A   Unknown
6:00 PM 38.7 °F 29.8 °F 21.0 °F 49% 30.06 in - East 16.1 mph - N/A   Unknown
7:00 PM 36.9 °F 27.5 °F 16.7 °F 44% 30.06 in - East 16.1 mph - N/A   Unknown
8:00 PM 34.3 °F 23.2 °F 15.1 °F 45% 30.04 in - East 19.6 mph - N/A   Unknown
9:00 PM 33.3 °F 21.2 °F 23.0 °F 66% 30.04 in - East 21.9 mph - N/A   Unknown
10:00 PM 33.3 °F 21.5 °F 27.0 °F 78% 30.01 in - East 20.7 mph - N/A   Unknown
11:00 PM 31.3 °F 19.5 °F 29.5 °F 93% 30.00 in - East 18.4 mph - N/A   Unknown